Olathe, KS

3:18 AM CST on January 21, 2017 (GMT -0600)
Olathe

Weather History for KOJC - March, 2014

Change the Weather History Date:

Friday, March 7, 2014

  Actual Average Record
Temperature  
Mean Temperature 46 °F 42 °F  
Max Temperature 61 °F 52 °F 81 °F (1974)
Min Temperature 31 °F 31 °F -6 °F (1943)
Degree Days  
Heating Degree Days 19 23  
Month to date heating degree days 277 171  
Since 1 July heating degree days 4758 4064  
Cooling Degree Days 0 0  
Month to date cooling degree days 0 0  
Year to date cooling degree days 0 0  
Moisture  
Dew Point 32 °F    
Average Humidity 59    
Maximum Humidity 85    
Minimum Humidity 32    
Precipitation  
Precipitation 0.00 in 0.09 in 0.55 in (1940)
Month to date precipitation 0.18 0.61  
Year to date precipitation 0.67 3.30  
Sea Level Pressure  
Sea Level Pressure 29.91 in    
Wind  
Wind Speed 11 mph (South)    
Max Wind Speed 22 mph    
Max Gust Speed 27 mph    
Visibility 7 miles    
Events      
T = Trace of Precipitation, MM = Missing Value Source: NWS Daily Summary

Daily Weather History Graph

Daily Weather History Graph

Search for Another Location

Airport or City:

Trip Planner

Search our weather history database for the weather conditions in past years. The results will help you decide how hot, cold, wet, or windy it might be!

Date:

Astronomy

Mar. 07, 2014 Rise Set
Actual Time 6:42 AM CST 6:18 PM CST
Civil Twilight 6:15 AM CST 6:44 PM CST
Nautical Twilight 5:45 AM CST 7:15 PM CST
Astronomical Twilight 5:14 AM CST 7:46 PM CST
Moon 10:39 AM CST (3/7) 12:20 AM CST (3/7)
Length of Visible Light 12h 28m
Length of Day
11h 35m
Waxing Crescent, 42% of the Moon is Illuminated
Mar 7
Waxing Crescent
Mar 8
First Quarter
Mar 16
Full
Mar 23
Last Quarter
Mar 30
New

Hourly Weather History & Observations

Time (CST) Temp. Windchill Dew Point Humidity Pressure Visibility Wind Dir Wind Speed Gust Speed Precip Events Conditions
12:53 AM 33.1 °F 26.1 °F 28.0 °F 82% 29.96 in 5.0 mi South 8.1 mph - N/A   Haze
1:53 AM 33.1 °F 26.1 °F 28.9 °F 85% 29.94 in 5.0 mi South 8.1 mph - N/A   Clear
2:53 AM 33.1 °F 26.9 °F 28.0 °F 82% 29.93 in 5.0 mi South 6.9 mph - N/A   Haze
3:53 AM 35.1 °F 27.9 °F 28.9 °F 78% 29.91 in 6.0 mi South 9.2 mph - N/A   Haze
4:53 AM 34.0 °F 26.6 °F 28.9 °F 82% 29.91 in 7.0 mi South 9.2 mph - N/A   Clear
5:53 AM 35.1 °F 26.9 °F 28.9 °F 78% 29.91 in 6.0 mi South 11.5 mph - N/A   Haze
6:53 AM 36.0 °F 29.0 °F 30.0 °F 79% 29.90 in 7.0 mi South 9.2 mph - N/A   Clear
7:53 AM 37.0 °F 30.4 °F 30.9 °F 79% 29.91 in 7.0 mi South 9.2 mph - N/A   Clear
8:53 AM 41.0 °F 34.3 °F 33.1 °F 73% 29.90 in 6.0 mi South 11.5 mph - N/A   Clear
9:53 AM 46.0 °F 39.6 °F 34.0 °F 63% 29.90 in 8.0 mi South 15.0 mph 23.0 mph N/A   Clear
10:53 AM 50.0 °F - 35.1 °F 57% 29.90 in 9.0 mi SSW 12.7 mph 20.7 mph N/A   Clear
11:53 AM 55.9 °F - 33.1 °F 42% 29.88 in 10.0 mi South 11.5 mph - N/A   Clear
12:53 PM 57.0 °F - 30.9 °F 37% 29.85 in 10.0 mi South 15.0 mph - N/A   Clear
1:53 PM 59.0 °F - 32.0 °F 36% 29.83 in 10.0 mi South 8.1 mph - N/A   Clear
2:53 PM 60.1 °F - 32.0 °F 35% 29.82 in 10.0 mi SSE 5.8 mph - N/A   Clear
3:53 PM 60.1 °F - 30.9 °F 33% 29.83 in 10.0 mi South 5.8 mph - N/A   Clear
4:53 PM 60.1 °F - 32.0 °F 35% 29.83 in 10.0 mi South 6.9 mph - N/A   Scattered Clouds
5:53 PM 57.0 °F - 32.0 °F 39% 29.85 in 10.0 mi Calm Calm - N/A   Overcast
6:53 PM 55.0 °F - 30.9 °F 40% 29.88 in 10.0 mi WSW 6.9 mph - N/A   Mostly Cloudy
7:42 PM 48.9 °F - 37.0 °F 64% 29.91 in 9.0 mi North 15.0 mph 23.0 mph N/A   Mostly Cloudy
7:53 PM 48.0 °F - 37.0 °F 66% 29.92 in 8.0 mi North 16.1 mph - N/A   Scattered Clouds
8:53 PM 44.1 °F 36.5 °F 36.0 °F 73% 29.96 in 7.0 mi North 17.3 mph - N/A   Clear
9:20 PM 39.9 °F 30.5 °F 34.0 °F 79% 29.97 in 5.0 mi North 19.6 mph 25.3 mph N/A   Haze
9:34 PM 37.9 °F 28.2 °F 33.1 °F 83% 29.98 in 5.0 mi North 18.4 mph 27.6 mph N/A   Haze
9:53 PM 37.9 °F 29.2 °F 33.1 °F 83% 30.01 in 5.0 mi North 15.0 mph 26.5 mph N/A   Haze
10:53 PM 36.0 °F 25.6 °F 30.9 °F 82% 30.04 in 5.0 mi North 18.4 mph - N/A   Haze
11:53 PM 34.0 °F 24.2 °F 30.0 °F 85% 30.04 in 5.0 mi North 15.0 mph - N/A   Overcast